OneWeb SL0192

operational
NORAD ID: 48222 Int'l Des: 2021-031 Owner: ONEWEBN Country: UK Constellation: oneweb
LEOCIRCULARPOLARONEWEB_TYPE

Über OneWeb SL0192

Beschreibung wird geladen...

Live-Position

3D-Globus wird geladen...

Nächste Überflüge

Höhenverlauf

Altitude vs Time

uPlot chart will show altitude changes over time

Zweizeiliger Elementsatz

1 48222U 21031N 25257.54538879 .00000227 00000-0 57916-3 0 9997
2 48222 87.9082 344.6078 0001777 102.7092 257.4236 13.14503827211961
Epoch: 14. Sept. 2025 • Age: 22 hours

Aktueller Status

Höhe 1227.9 km
Geschwindigkeit 7.24 km/s
Subsatellitenpunkt -53.70°S, 174.14°W
Startdatum 25. Apr. 2021
Alter 4.3 years
Typ internet

Technische Details

Klassifizierung Payload
Masse 148.00 kg
Trockenmasse 140.00 kg
Gesamtmasse 148.00 kg
Länge 1.30 m
Durchmesser 1.00 m
Spannweite 5.00 m
Form Trapezoid+2 pan
Hersteller ONEWUS
Bus-Typ ARROW
Phasenstatus In Orbit
Besitzer/Staat ONEWEBN/UK

Große Konstellationen

Loading constellations...